COSMOS 2564 (761)

Last updated on Sun Dec 14 2025 00:03:21 GMT+0000 (Coordinated Universal Time)

1 54377U 22161A 25346.94503653 .00000075 00000+0 00000+0 0 9993 2 54377 64.7382 198.8921 0008601 204.7149 155.3163 2.13102087 23663
UTC large
Height (km)
Speed (km/s)
/
Latitude / Longitude
Inclination (degrees)
Orbital Period (minutes)
Azimuth
Elevation
Range (km)
Doppler Factor

Next 0 passes for location: London (51.5072 / 0.1276)

Sorry there are no passes over London.